sat.trackr.live / text

‹ back to catalog

IRIDE-MS2-HEO-15

NORAD 68987 · 2026-100H

PAYLOAD ACTIVE UNKNOWN

§ Identity

Operator
Country
IT
Launch date
2026-05-03
Launch site
AFWTR
Launch vehicle
Mass (kg)
RCS (m²)

External: N2YO · Heavens-Above · Gunter

§ Orbital elements

Epoch: 2026-05-25T03:11:43.130976Z

Period
96.53 min
Inclination
97.7364°
Eccentricity
0.0001509
Mean motion
14.91724961 rev/d
Perigee alt
591.5 km
Apogee alt
593.6 km
Semi-major
6,970.7 km
B*
1.4622e-4
RAAN
43.0144°
Arg perigee
146.2450°
Mean anomaly
213.8865°
Rev number
326

§ Raw data

IRIDE-MS2-HEO-151 68987U 26100H   26145.13313809  .00001417  00000+0  14622-3 0  99932 68987  97.7364  43.0144 0001509 146.2450 213.8865 14.91724961  3267

JSON: /api/v1/satellites/68987 · /tle

For live sub-satellite position, see the globe view (requires WebGL).

§ Visibility from observer

Set your observer location to see the next 7 days of passes ≥ 10°. The values pass through the URL so the page stays shareable.

No JS? Fill the form by hand. The geolocation button needs JavaScript.